Location: Chapel Hill
(35.9134°N, 79.0560°W)
Time: 08:44:45
(UTC-04:00)

Vanguard 2 - Visible Passes

Search period start: 13 May 2025 00:00
Search period end: 23 May 2025 00:00
Orbit: 552 x 2901 km, 32.9° (Epoch: 12 May)

Date Brightness Start Highest point End Pass type
(mag) Time Alt. Az. Time Alt. Az. Time Alt. Az.
13 May 9.8 01:12:16 10° WSW 01:24:33 77° S 01:42:04 10° E visible
13 May 10.1 03:21:35 10° W 03:36:47 76° S 03:54:27 10° ESE visible
13 May 10.5 05:32:30 10° W 05:48:47 52° SSW 06:04:09 10° SE visible
13 May 10.0 21:13:03 10° S 21:18:44 20° SE 21:26:22 10° E visible
13 May 9.4 23:17:11 10° SW 23:26:33 56° SSE 23:41:21 10° E visible
14 May 9.8 01:24:50 10° W 01:37:12 79° S 01:54:47 10° E visible
14 May 10.1 03:34:14 10° W 03:49:25 72° SSW 04:06:58 10° ESE visible
14 May 9.7 21:24:19 10° S 21:30:42 26° SE 21:39:54 10° E visible
14 May 9.4 23:29:28 10° WSW 23:38:58 63° SSE 23:54:08 10° E visible
15 May 9.8 01:37:25 10° W 01:49:53 80° S 02:07:31 10° E visible
15 May 10.2 03:46:54 10° W 04:02:00 67° SSW 04:19:22 10° ESE visible
15 May 9.5 21:35:58 10° SSW 21:42:45 33° SE 21:53:05 10° E visible
15 May 9.3 23:41:52 10° WSW 23:51:27 69° SSE 00:06:53 10° E visible
16 May 9.8 01:50:01 10° W 02:02:33 79° S 02:20:11 10° ESE visible
16 May 10.2 03:59:35 10° W 04:14:32 60° SSW 04:31:37 10° SE visible
16 May 9.3 21:47:54 10° SW 21:54:54 41° SSE 22:06:03 10° E visible
16 May 9.3 23:54:20 10° WSW 00:04:00 74° SSE 00:19:37 10° E visible
17 May 9.8 02:02:37 10° W 02:15:13 76° S 02:32:49 10° ESE visible
17 May 10.3 04:12:19 10° W 04:27:00 54° SSW 04:43:42 10° SE visible
17 May 9.1 22:00:00 10° SW 22:07:09 49° SSE 22:18:54 10° E visible
18 May 9.3 00:06:51 10° WSW 00:16:36 77° S 00:32:21 10° E visible
18 May 9.8 02:15:15 10° W 02:27:51 72° SSW 02:45:20 10° ESE visible
18 May 10.4 04:25:07 10° W 04:39:24 46° SSW 04:55:34 10° SE visible
18 May 8.9 22:12:14 10° SW 22:19:30 57° SSE 22:31:40 10° E visible
19 May 9.4 00:19:24 10° W 00:29:14 78° S 00:45:04 10° E visible
19 May 9.9 02:27:51 10° W 02:40:27 66° SSW 02:57:46 10° ESE visible
19 May 10.5 04:38:03 10° W 04:51:46 39° SSW 05:07:12 10° SSE visible
19 May 8.9 22:24:36 10° WSW 22:31:56 64° SSE 22:44:24 10° E visible
20 May 9.4 00:31:58 10° W 00:41:52 77° S 00:57:45 10° E visible
20 May 9.9 02:40:30 10° W 02:53:00 60° SSW 03:10:01 10° SE visible
20 May 10.7 04:51:12 10° W 05:04:06 33° SW 05:18:30 10° SSE visible
20 May 8.8 22:37:01 10° WSW 22:44:27 70° SSE 22:57:07 10° E visible
21 May 9.4 00:44:32 10° W 00:54:30 75° S 01:10:23 10° ESE visible
21 May 10.0 02:53:11 10° W 03:05:31 53° SSW 03:22:07 10° SE visible
21 May 10.8 05:04:39 10° W 05:16:25 26° SW 05:29:25 10° S visible
21 May 8.8 20:43:12 10° SW 20:48:35 39° SSE 20:57:03 10° E visible
21 May 8.8 22:49:30 10° WSW 22:57:00 74° S 23:09:49 10° E visible
22 May 9.4 00:57:07 10° W 01:07:06 70° SSW 01:22:56 10° ESE visible
22 May 10.1 03:05:57 10° W 03:18:00 46° SSW 03:33:59 10° SE visible
22 May 11.0 05:18:39 10° W 05:28:44 20° SW 05:39:42 10° S visible
22 May 8.5 20:55:23 10° SW 21:00:54 48° SSE 21:09:50 10° E visible
22 May 8.9 23:02:01 10° W 23:09:34 75° S 23:22:31 10° E visible
